WX5HOT Weather Reports


Display with metric or nautical units.
time (UTC)temp
F
wind
direction
speed
MPH
gust
MPH
rain 1hr
in
rain 24hr
in
rain mn
in
humidity
%
barometer
mb
20260509223807 77 127 1.0 1.0 0.00 0.00 0.00 56 1061.4
20260509223304 78 147 0.0 0.0 0.00 0.00 0.00 53 1061.3
20260509222801 80 151 3.0 2.0 0.00 0.00 0.00 48 1061.2
20260509222256 80 196 0.0 0.0 0.00 0.00 0.00 50 1061.2
20260509221753 81 178 1.0 1.0 0.00 0.00 0.00 47 1061.4
20260509221249 81 208 0.0 0.0 0.00 0.00 0.00 49 1061.2
20260509220745 81 184 0.0 0.0 0.00 0.00 0.00 48 1061.2
20260509220241 80 177 1.0 1.0 0.00 0.00 0.00 50 1061.1
20260509215736 80 203 2.0 2.0 0.00 0.00 0.00 50 1061.0
20260509215234 79 187 1.0 2.0 0.00 0.00 0.00 48 1061.3
20260509214731 80 143 1.0 2.0 0.00 0.00 0.00 49 1061.1
20260509214228 80 193 1.0 1.0 0.00 0.00 0.00 55 1061.3
20260509213725 77 207 2.0 2.0 0.00 0.00 0.00 54 1061.3
20260509213220 76 66 3.0 3.0 0.00 0.00 0.00 54 1061.2
20260509212718 75 34 2.0 3.0 0.00 0.00 0.00 56 1061.4
20260509212215 76 45 2.0 4.0 0.00 0.00 0.00 56 1061.4
20260509211711 77 125 0.0 1.0 0.00 0.00 0.00 55 1061.3
20260509211208 79 133 2.0 3.0 0.00 0.00 0.00 52 1061.3
20260509210704 77 189 0.0 0.0 0.00 0.00 0.00 53 1061.4
20260509210202 78 200 0.0 1.0 0.00 0.00 0.00 57 1061.3
20260509205701 80 100 2.0 4.0 0.00 0.00 0.00 51 1061.4
20260509205201 80 183 1.0 1.0 0.00 0.00 0.00 50 1061.5
20260509204657 80 178 1.0 2.0 0.00 0.00 0.00 52 1061.5
20260509204153 79 170 1.0 1.0 0.00 0.00 0.00 50 1061.6
20260509203649 80 59 4.0 4.0 0.00 0.00 0.00 48 1061.6
20260509203148 79 214 3.0 3.0 0.00 0.00 0.00 52 1061.5
20260509202643 78 169 1.0 1.0 0.00 0.00 0.00 56 1061.8
20260509202138 77 180 0.0 0.0 0.00 0.00 0.00 56 1061.8
20260509201628 78 174 1.0 1.0 0.00 0.00 0.00 54 1061.8
20260509201126 79 213 1.0 1.0 0.00 0.00 0.00 51 1062.2
20260509200621 78 218 1.0 1.0 0.00 0.00 0.00 52 1062.1
20260509200117 77 141 2.0 2.0 0.00 0.00 0.00 52 1062.1
20260509195612 76 160 0.0 0.0 0.00 0.00 0.00 55 1062.1
20260509195107 76 167 0.0 0.0 0.00 0.00 0.00 53 1062.2
20260509194606 78 171 0.0 0.0 0.00 0.00 0.00 53 1062.1
20260509194105 79 212 0.0 0.0 0.00 0.00 0.00 51 1062.1
20260509193600 79 185 0.0 1.0 0.00 0.00 0.00 52 1062.3
20260509193056 79 172 0.0 0.0 0.00 0.00 0.00 53 1062.3
20260509192553 79 209 1.0 1.0 0.00 0.00 0.00 50 1062.2
20260509192049 79 94 1.0 1.0 0.00 0.00 0.00 52 1062.5
20260509191548 79 211 0.0 0.0 0.00 0.00 0.00 49 1062.6
20260509191044 77 199 0.0 1.0 0.00 0.00 0.00 52 1062.3
20260509190541 76 123 1.0 1.0 0.00 0.00 0.00 54 1062.3
20260509190040 76 179 1.0 2.0 0.00 0.00 0.00 56 1062.3
20260509185537 77 186 0.0 0.0 0.00 0.00 0.00 53 1062.4
20260509185033 78 112 2.0 2.0 0.00 0.00 0.00 53 1062.3
20260509184531 76 217 2.0 2.0 0.00 0.00 0.00 57 1062.3
20260509184027 76 213 2.0 2.0 0.00 0.00 0.00 60 1062.5
20260509183522 76 235 2.0 2.0 0.00 0.00 0.00 55 1062.5
20260509183019 77 255 3.0 4.0 0.00 0.00 0.00 58 1062.4
20260509182515 76 223 2.0 2.0 0.00 0.00 0.00 55 1062.6
20260509182012 75 203 1.0 1.0 0.00 0.00 0.00 61 1062.4
20260509181510 75 97 3.0 3.0 0.00 0.00 0.00 59 1062.6
20260509181008 75 120 2.0 3.0 0.00 0.00 0.00 61 1062.7
20260509180503 76 73 3.0 3.0 0.00 0.00 0.00 56 1062.7
20260509180001 75 208 2.0 2.0 0.00 0.00 0.00 61 1062.7
20260509175456 74 306 2.0 2.0 0.00 0.00 0.00 60 1062.8
20260509174953 74 200 2.0 3.0 0.00 0.00 0.00 60 1062.7
20260509174449 74 140 0.0 1.0 0.00 0.00 0.00 64 1062.8
20260509173944 75 196 1.0 1.0 0.00 0.00 0.00 60 1063.0
20260509173444 74 163 1.0 1.0 0.00 0.00 0.00 66 1062.8
20260509172941 74 88 0.0 0.0 0.00 0.00 0.00 62 1062.8
20260509172438 74 248 3.0 3.0 0.00 0.00 0.00 61 1062.8
20260509171934 74 307 2.0 2.0 0.00 0.00 0.00 61 1062.9
20260509171430 75 244 2.0 1.0 0.00 0.00 0.00 63 1062.9
20260509170927 74 200 1.0 1.0 0.00 0.00 0.00 67 1062.9
20260509170422 74 211 1.0 1.0 0.00 0.00 0.00 64 1063.0
20260509165919 73 302 2.0 2.0 0.00 0.00 0.00 65 1062.8
20260509165412 74 19 3.0 3.0 0.00 0.00 0.00 63 1062.8
20260509164908 73 232 1.0 2.0 0.00 0.00 0.00 66 1062.8
20260509164405 73 207 2.0 1.0 0.00 0.00 0.00 69 1062.7
20260509163901 73 198 1.0 1.0 0.00 0.00 0.00 69 1062.6
20260509163358 72 181 1.0 1.0 0.00 0.00 0.00 69 1062.8
20260509162857 72 204 4.0 4.0 0.00 0.00 0.00 69 1062.8
20260509162355 72 320 3.0 4.0 0.00 0.00 0.00 69 1062.8
20260509161851 71 176 2.0 2.0 0.00 0.00 0.00 70 1062.8
20260509161348 71 229 2.0 2.0 0.00 0.00 0.00 69 1062.6
20260509160844 71 319 2.0 4.0 0.00 0.00 0.00 70 1062.8
20260509160340 71 215 1.0 2.0 0.00 0.00 0.00 71 1062.9
20260509155835 72 169 2.0 2.0 0.00 0.00 0.00 70 1062.5
20260509155332 72 284 3.0 3.0 0.00 0.00 0.00 70 1062.7
20260509154828 72 206 0.0 0.0 0.00 0.00 0.00 71 1062.7
20260509154324 72 200 1.0 1.0 0.00 0.00 0.00 72 1062.6
20260509153821 72 67 3.0 3.0 0.00 0.00 0.00 70 1062.6
20260509153318 72 39 2.0 2.0 0.00 0.00 0.00 69 1062.6
20260509152815 72 175 2.0 2.0 0.00 0.00 0.00 70 1062.7
20260509152311 72 230 2.0 2.0 0.00 0.00 0.00 70 1062.7
20260509151809 71 127 1.0 1.0 0.00 0.00 0.00 71 1062.7
20260509151304 71 236 2.0 2.0 0.00 0.00 0.00 69 1062.7
20260509150803 71 247 2.0 2.0 0.00 0.00 0.00 70 1062.5
20260509150301 71 210 1.0 1.0 0.00 0.00 0.00 74 1062.7
20260509145757 71 196 1.0 1.0 0.00 0.00 0.00 70 1062.5
20260509145257 70 75 2.0 2.0 0.00 0.00 0.00 72 1062.6
20260509144754 70 35 1.0 1.0 0.00 0.00 0.00 72 1062.7
20260509144251 69 226 1.0 1.0 0.00 0.00 0.00 73 1062.7
20260509143748 69 231 2.0 1.0 0.00 0.00 0.00 74 1062.8
20260509143246 69 228 2.0 2.0 0.00 0.00 0.00 74 1062.8
20260509142741 68 233 2.0 2.0 0.00 0.00 0.00 76 1062.8
20260509142238 68 234 2.0 2.0 0.00 0.00 0.00 76 1062.9
20260509141733 68 225 3.0 3.0 0.00 0.00 0.00 75 1062.7
20260509141231 68 233 2.0 2.0 0.00 0.00 0.00 76 1062.8
20260509140727 67 266 5.0 6.0 0.00 0.00 0.00 76 1062.8
20260509140225 67 262 5.0 6.0 0.00 0.00 0.00 76 1062.8
20260509135722 67 274 4.0 4.0 0.00 0.00 0.00 77 1062.8
20260509135220 67 228 5.0 4.0 0.00 0.00 0.00 76 1062.9
20260509134716 67 252 6.0 6.0 0.00 0.00 0.00 76 1062.9
20260509134214 66 221 5.0 6.0 0.00 0.00 0.00 77 1062.9
20260509133711 66 233 3.0 3.0 0.00 0.00 0.00 77 1062.8
20260509133208 66 235 5.0 6.0 0.00 0.00 0.00 77 1062.8
20260509132707 66 230 4.0 4.0 0.00 0.00 0.00 77 1062.8
20260509132205 66 203 4.0 3.0 0.00 0.00 0.00 77 1063.0
20260509131700 65 206 5.0 7.0 0.00 0.00 0.00 77 1062.8
20260509131157 65 222 4.0 4.0 0.00 0.00 0.00 77 1062.7
20260509130653 65 222 4.0 4.0 0.00 0.00 0.00 77 1062.5
20260509130149 64 214 6.0 7.0 0.00 0.00 0.00 78 1062.6
20260509125646 65 203 4.0 3.0 0.00 0.00 0.00 77 1062.6
20260509125143 65 207 6.0 7.0 0.00 0.00 0.00 77 1062.6
20260509124640 65 213 6.0 7.0 0.00 0.00 0.00 77 1062.5
20260509124137 65 208 6.0 8.0 0.00 0.00 0.00 76 1062.1
20260509123634 65 213 5.0 6.0 0.00 0.00 0.00 76 1062.3
20260509123131 65 221 6.0 7.0 0.00 0.00 0.00 76 1062.1
20260509122627 65 225 5.0 6.0 0.00 0.00 0.00 76 1062.1
20260509122124 65 211 4.0 4.0 0.00 0.00 0.00 76 1061.8
20260509121620 65 195 5.0 9.0 0.00 0.00 0.00 76 1062.0
20260509121119 65 219 6.0 7.0 0.00 0.00 0.00 76 1061.6
20260509120616 65 224 6.0 8.0 0.00 0.00 0.00 76 1062.0
20260509120114 65 217 8.0 9.0 0.00 0.00 0.00 77 1061.6
20260509115611 64 220 6.0 8.0 0.00 0.00 0.00 77 1061.6
20260509115109 64 199 7.0 9.0 0.00 0.00 0.00 78 1061.7
20260509114607 64 213 7.0 10.0 0.00 0.00 0.00 78 1061.7
20260509114106 64 214 5.0 6.0 0.00 0.00 0.00 78 1061.5
20260509113603 64 209 9.0 10.0 0.00 0.00 0.00 77 1061.5
20260509113101 64 205 8.0 9.0 0.00 0.00 0.00 78 1061.4
20260509112557 64 215 6.0 9.0 0.00 0.00 0.00 78 1061.2
20260509112054 63 214 9.0 11.0 0.00 0.00 0.00 78 1061.1
20260509111551 63 206 8.0 11.0 0.00 0.00 0.00 78 1061.0
20260509111048 63 203 8.0 10.0 0.00 0.00 0.00 77 1060.9
20260509110545 63 207 6.0 7.0 0.00 0.00 0.00 77 1060.9
20260509110042 63 216 8.0 10.0 0.00 0.00 0.00 78 1060.9
20260509105540 63 183 5.0 7.0 0.00 0.00 0.00 78 1060.8
20260509105038 63 199 7.0 11.0 0.00 0.00 0.00 78 1060.9
20260509104534 62 195 3.0 4.0 0.00 0.00 0.00 80 1060.8
20260509104031 62 180 4.0 6.0 0.00 0.00 0.00 80 1061.0
20260509103529 62 210 6.0 8.0 0.00 0.00 0.00 80 1060.7
20260509103027 63 196 7.0 9.0 0.00 0.00 0.00 79 1060.9
20260509102524 63 216 6.0 9.0 0.00 0.00 0.00 79 1060.7
20260509102021 63 215 8.0 9.0 0.00 0.00 0.00 78 1060.7
20260509101517 63 201 8.0 10.0 0.00 0.00 0.00 78 1060.7
20260509101014 63 217 6.0 7.0 0.00 0.00 0.00 78 1060.7
20260509100512 63 206 6.0 9.0 0.00 0.00 0.00 78 1060.6
20260509100009 63 215 7.0 8.0 0.00 0.00 0.00 78 1060.6
20260509095505 64 192 6.0 9.0 0.00 0.00 0.00 77 1060.7
20260509095002 64 190 4.0 6.0 0.00 0.00 0.00 77 1060.6
20260509094458 64 218 7.0 9.0 0.00 0.00 0.00 77 1060.6
20260509093956 64 220 6.0 9.0 0.00 0.00 0.00 77 1060.6
20260509093454 64 203 8.0 10.0 0.00 0.00 0.00 77 1060.8
20260509092951 63 212 6.0 9.0 0.00 0.00 0.00 78 1060.7
20260509092449 63 169 6.0 9.0 0.00 0.00 0.00 79 1060.6
20260509091948 63 189 6.0 9.0 0.00 0.00 0.00 80 1060.6
20260509091444 63 203 4.0 7.0 0.00 0.00 0.00 79 1060.6
20260509090941 63 211 6.0 9.0 0.00 0.00 0.00 79 1060.5
20260509090438 63 201 4.0 6.0 0.00 0.00 0.00 78 1060.6
20260509085936 63 209 5.0 8.0 0.00 0.00 0.00 78 1060.6
20260509085433 63 208 6.0 9.0 0.00 0.00 0.00 79 1060.7
20260509084929 63 183 6.0 9.0 0.00 0.00 0.00 80 1060.6
20260509084426 62 203 5.0 7.0 0.00 0.00 0.00 81 1060.4
20260509083924 62 206 6.0 10.0 0.00 0.00 0.00 81 1060.6
20260509083420 62 187 6.0 8.0 0.00 0.00 0.00 82 1060.8
20260509082917 62 188 4.0 4.0 0.00 0.00 0.00 82 1060.7
20260509082415 62 209 4.0 4.0 0.00 0.00 0.00 82 1060.7
20260509081911 62 205 5.0 7.0 0.00 0.00 0.00 83 1060.6
20260509081408 62 186 4.0 4.0 0.00 0.00 0.00 82 1060.9
20260509080906 62 192 3.0 4.0 0.00 0.00 0.00 82 1060.8
20260509080404 61 173 4.0 7.0 0.00 0.00 0.00 83 1060.8
20260509075902 61 191 3.0 4.0 0.00 0.00 0.00 83 1060.7
20260509075358 61 190 3.0 3.0 0.00 0.00 0.00 83 1060.7
20260509074856 61 186 3.0 3.0 0.00 0.00 0.00 82 1060.9
20260509074354 62 167 3.0 4.0 0.00 0.00 0.00 82 1061.0
20260509073849 62 186 3.0 3.0 0.00 0.00 0.00 81 1060.9
20260509073346 62 165 4.0 4.0 0.00 0.00 0.00 81 1060.9
20260509072843 62 162 4.0 4.0 0.00 0.00 0.00 81 1061.2
20260509072339 62 178 4.0 3.0 0.00 0.00 0.00 81 1061.1
20260509071836 62 187 3.0 3.0 0.00 0.00 0.00 80 1061.4
20260509071333 62 185 4.0 4.0 0.00 0.00 0.00 80 1061.4
20260509070830 62 167 4.0 4.0 0.00 0.00 0.00 80 1061.5
20260509070327 62 183 4.0 4.0 0.00 0.00 0.00 80 1061.6
20260509065823 62 175 3.0 3.0 0.00 0.00 0.00 79 1061.5
20260509065319 63 171 4.0 4.0 0.00 0.00 0.00 79 1061.6
20260509064815 63 171 4.0 4.0 0.00 0.00 0.00 78 1061.7
20260509064313 62 179 3.0 2.0 0.00 0.00 0.00 79 1062.0
20260509063810 62 182 5.0 6.0 0.00 0.00 0.00 80 1061.8
20260509063306 62 180 4.0 4.0 0.00 0.00 0.00 79 1062.2
20260509062804 62 175 4.0 4.0 0.00 0.00 0.00 79 1062.0
20260509062301 63 176 4.0 4.0 0.00 0.00 0.00 78 1061.7
20260509061758 63 173 4.0 4.0 0.00 0.00 0.00 78 1061.7
20260509061256 62 164 3.0 3.0 0.00 0.00 0.00 79 1062.0
20260509060753 62 176 4.0 4.0 0.00 0.00 0.00 79 1061.8
20260509060249 62 164 5.0 6.0 0.00 0.00 0.00 78 1061.8
20260509055745 63 173 5.0 6.0 0.00 0.00 0.00 78 1061.8
20260509055241 63 176 4.0 6.0 0.00 0.00 0.00 78 1061.7
20260509054738 63 170 4.0 4.0 0.00 0.00 0.00 76 1061.8
20260509054235 64 169 4.0 4.0 0.00 0.00 0.00 76 1062.0
20260509053733 64 162 4.0 4.0 0.00 0.00 0.00 75 1061.8
20260509053230 64 167 3.0 3.0 0.00 0.00 0.00 75 1062.4
20260509052728 64 174 3.0 3.0 0.00 0.00 0.00 76 1062.4
20260509052225 64 168 2.0 3.0 0.00 0.00 0.00 75 1062.5
20260509051723 64 146 3.0 3.0 0.00 0.00 0.00 75 1062.4
20260509051220 63 154 2.0 2.0 0.00 0.00 0.00 75 1062.6
20260509050717 63 173 2.0 3.0 0.00 0.00 0.00 75 1062.6
20260509050213 64 175 2.0 2.0 0.00 0.00 0.00 74 1062.6
20260509045711 64 178 2.0 2.0 0.00 0.00 0.00 74 1062.7
20260509045208 64 171 2.0 2.0 0.00 0.00 0.00 73 1062.8
20260509044705 64 176 2.0 2.0 0.00 0.00 0.00 73 1062.9
20260509044202 64 170 2.0 3.0 0.00 0.00 0.00 72 1063.2
20260509043658 64 160 1.0 1.0 0.00 0.00 0.00 71 1063.4
20260509043154 64 49 3.0 3.0 0.00 0.00 0.00 71 1063.6
20260509042651 64 57 3.0 3.0 0.00 0.00 0.00 71 1063.9
20260509042147 64 63 1.0 2.0 0.00 0.00 0.00 73 1063.6
20260509041644 64 172 0.0 0.0 0.00 0.00 0.00 73 1063.5
20260509041141 64 158 0.0 0.0 0.00 0.00 0.00 72 1063.3
20260509040640 64 47 3.0 3.0 0.00 0.00 0.00 72 1063.5
20260509040136 64 38 3.0 3.0 0.00 0.00 0.00 72 1063.4
20260509035633 64 69 2.0 2.0 0.00 0.00 0.00 72 1063.2
20260509035130 64 176 2.0 2.0 0.00 0.00 0.00 72 1063.1
20260509034628 64 186 0.0 1.0 0.00 0.00 0.00 72 1063.2
20260509034124 64 172 2.0 2.0 0.00 0.00 0.00 71 1063.0
20260509033621 64 174 2.0 2.0 0.00 0.00 0.00 71 1063.1
20260509033118 64 170 2.0 3.0 0.00 0.00 0.00 72 1063.3
20260509032616 65 173 3.0 2.0 0.00 0.00 0.00 71 1063.7
20260509032112 65 172 3.0 3.0 0.00 0.00 0.00 70 1063.3
20260509031610 65 176 1.0 1.0 0.00 0.00 0.00 69 1063.2
20260509031108 65 172 2.0 3.0 0.00 0.00 0.00 69 1063.0
20260509030605 65 170 3.0 3.0 0.00 0.00 0.00 69 1062.9
20260509025558 65 177 1.0 1.0 0.00 0.00 0.00 68 1062.9
20260509025054 65 171 2.0 2.0 0.00 0.00 0.00 68 1062.8
20260509024550 65 178 2.0 2.0 0.00 0.00 0.00 68 1062.6
20260509024046 65 173 2.0 2.0 0.00 0.00 0.00 68 1062.6
20260509023544 65 179 2.0 2.0 0.00 0.00 0.00 69 1062.5
20260509023040 64 183 0.0 0.0 0.00 0.00 0.00 69 1062.4
20260509022537 64 178 1.0 1.0 0.00 0.00 0.00 70 1062.2
20260509022035 64 175 2.0 2.0 0.00 0.00 0.00 70 1062.0
20260509021532 64 180 2.0 2.0 0.00 0.00 0.00 70 1061.6
20260509021029 64 171 3.0 3.0 0.00 0.00 0.00 71 1061.5
20260509020527 64 178 3.0 3.0 0.00 0.00 0.00 71 1061.2
20260509020023 64 169 3.0 3.0 0.00 0.00 0.00 72 1061.0
20260509015523 64 172 3.0 3.0 0.00 0.00 0.00 72 1061.0
20260509015019 64 174 3.0 3.0 0.00 0.00 0.00 73 1060.9
20260509014516 64 180 3.0 3.0 0.00 0.00 0.00 73 1060.9
20260509014013 64 176 3.0 3.0 0.00 0.00 0.00 73 1060.8
20260509013510 64 172 4.0 3.0 0.00 0.00 0.00 73 1060.7
20260509013005 64 170 4.0 3.0 0.00 0.00 0.00 73 1060.6
20260509012502 64 171 3.0 3.0 0.00 0.00 0.00 73 1060.5
20260509011958 64 173 3.0 4.0 0.00 0.00 0.00 72 1060.5
20260509011456 64 183 3.0 3.0 0.00 0.00 0.00 72 1060.6
20260509010954 64 177 3.0 3.0 0.00 0.00 0.00 72 1060.5
20260509010451 64 179 3.0 3.0 0.00 0.00 0.00 72 1060.4
20260509005948 65 165 2.0 2.0 0.00 0.00 0.00 71 1060.6
20260509005446 65 176 3.0 3.0 0.00 0.00 0.00 70 1060.3
20260509004946 65 184 4.0 4.0 0.00 0.00 0.00 69 1060.1
20260509004443 66 170 4.0 4.0 0.00 0.00 0.00 67 1060.3
20260509003941 66 172 3.0 3.0 0.00 0.00 0.00 67 1060.4
20260509003438 67 176 3.0 3.0 0.00 0.00 0.00 68 1060.4
20260509002935 67 180 4.0 4.0 0.00 0.00 0.00 68 1060.2
20260509002433 67 167 3.0 3.0 0.00 0.00 0.00 67 1060.3
20260509001930 67 170 4.0 6.0 0.00 0.00 0.00 68 1060.3
20260509001426 68 173 5.0 6.0 0.00 0.00 0.00 68 1060.5
20260509000923 68 191 4.0 4.0 0.00 0.00 0.00 67 1060.5
20260509000421 68 158 3.0 3.0 0.00 0.00 0.00 67 1060.6
20260508235916 69 176 5.0 6.0 0.00 0.00 0.00 67 1060.7
20260508235415 69 174 3.0 3.0 0.00 0.00 0.00 66 1060.5
20260508234911 69 189 3.0 3.0 0.00 0.00 0.00 64 1060.6
20260508234408 69 186 2.0 2.0 0.00 0.00 0.00 65 1060.8
20260508233906 69 182 2.0 2.0 0.00 0.00 0.00 64 1060.7
20260508233406 70 173 3.0 3.0 0.00 0.00 0.00 63 1060.9
20260508232902 70 182 3.0 3.0 0.00 0.00 0.00 61 1060.8
20260508232358 70 183 2.0 2.0 0.00 0.00 0.00 60 1061.0
20260508231856 70 187 1.0 1.0 0.00 0.00 0.00 60 1061.2
20260508231352 71 185 1.0 2.0 0.00 0.00 0.00 59 1061.0
20260508230849 71 176 2.0 2.0 0.00 0.00 0.00 58 1060.9
20260508230346 71 192 1.0 1.0 0.00 0.00 0.00 58 1061.0
20260508225843 71 180 2.0 3.0 0.00 0.00 0.00 56 1061.1
20260508225340 71 189 1.0 1.0 0.00 0.00 0.00 56 1060.9
20260508224838 72 161 2.0 2.0 0.00 0.00 0.00 55 1060.8
20260508224335 72 185 2.0 2.0 0.00 0.00 0.00 54 1061.0